7 * 24
多渠道服务支持
ORBCOMM FM22 是一颗由 ORBCOMM 公司运营的低轨(LEO)卫星,属于其全球物联网(IoT)通信网络的一部分。该卫星主要用于提供机器对机器(M2M)通信服务,支持远程设备的数据传输,广泛应用于物流、运输、资产管理等领域。FM22 运行在约 750 公里的轨道高度,采用 L 波段通信,具备低功耗、广覆盖的特点,能够在全球范围内实现可靠的双向数据通信。
| 数据来源 | 国际轨道数据 |
| 星历时间: | 2025-10-25T19:30:34+0800 10小时前 查看轨道信息 |
| 半长轴: | 7140.677km |
| 偏心率: | 0.0004188 |
| 轨道倾角: | 45.008° |
| 近地点辐角 | 191.390° |
| 升交点赤经 | 6.123° |
| 平近点角 | 168.685° |
| 近地点: | 759.551km |
| 远地点: | 765.533km |
| 周期: | 100.085分钟 |
| 每日圈数: | 14.387778 |